Regional Weather Roundup
Issued by NWS

Home | Current Version | Previous Version | Graphics & Text | Print | Product List | Glossary On
Versions: 1 2 3 4 5 6 7 8 9 10 11 12 13 14 15 16 17 18 19 20 21 22 23 24 25 26 27
000
ASUS45 KCYS 190010
RWRWY

WYOMING REGIONAL WEATHER ROUNDUP
NATIONAL WEATHER SERVICE CHEYENNE WY
500 PM MST WED JAN 18 2017

NOTE:  "FAIR" INDICATES FEW OR NO CLOUDS BELOW 12,000 FEET
WITH NO SIGNIFICANT WEATHER AND/OR OBSTRUCTIONS TO VISIBILITY.

WYZ001-190100-
YELLOWSTONE NATIONAL PARK

CITY           SKY/WX    TMP DP  RH WIND       PRES   REMARKS
LK YELLOWSTONE   N/A     17  14  88 NW3       29.84F
6HR MIN TEMP:   3; 6HR MAX TEMP:  24;

W YELLOWSTONE  NOT AVBL

$$
WYZ002>013-054>058-071-098>099-190100-
NORTHERN WYOMING

CITY           SKY/WX    TMP DP  RH WIND       PRES   REMARKS
JACKSON        CLEAR      7   3  85 CALM      29.89F
CODY           FAIR      30  21  69 SE6       29.70F WCI  24
GREYBULL       FAIR      15   8  73 NW6       29.73F WCI   6
6HR MIN TEMP:   6; 6HR MAX TEMP:  21; 6HR PCP: TRACE;

WORLAND        FAIR      20  15  81 E5        29.72F WCI  13
6HR MIN TEMP:  16; 6HR MAX TEMP:  33; 6HR PCP: TRACE;

SHERIDAN       FAIR      27  19  72 MISG      29.62S
6HR MIN TEMP:  25; 6HR MAX TEMP:  37;

BUFFALO        FAIR      41  25  53 NW7       29.64F
6HR MIN TEMP:  40; 6HR MAX TEMP:  55;

GILLETTE       FAIR      41  24  51 S10       29.64F
6HR MIN TEMP:  40; 6HR MAX TEMP:  52;

HULETT         FAIR      43  23  45 W6        29.66R
NEWCASTLE      FAIR      36  25  64 CALM      29.69S

$$
WYZ014>020-022>026-101>103-190100-
CENTRAL WYOMING

CITY           SKY/WX    TMP DP  RH WIND       PRES   REMARKS
BIG PINEY      FAIR       3  -1  83 NW3       29.89F
6HR MIN TEMP:  -6; 6HR MAX TEMP:   8;

PINEDALE       FAIR       9   1  72 CALM      29.88F
DUBOIS         NOT AVBL
LANDER         FAIR      18  10  71 CALM      29.80S
6HR MIN TEMP:  16; 6HR MAX TEMP:  24;

RIVERTON       FAIR      15   6  67 W5        29.81F WCI   8
6HR MIN TEMP:   8; 6HR MAX TEMP:  21; 6HR PCP: TRACE;

CASPER         FAIR      35  20  54 SW30G44   29.75F WCI  22
DOUGLAS        FAIR      41  19  41 N8        29.71F
6HR MIN TEMP:  41; 6HR MAX TEMP:  58;


$$
WYZ021-027>030-104>119-190100-
SOUTHERN WYOMING

CITY           SKY/WX    TMP DP  RH WIND       PRES   REMARKS
EVANSTON       FAIR      26   9  48 SE7       29.87F WCI  18
6HR MIN TEMP:  19; 6HR MAX TEMP:  27;

ROCK SPRINGS   FAIR      10   4  76 CALM      29.88F
6HR MIN TEMP:   2; 6HR MAX TEMP:  16;

RAWLINS        FAIR      27  17  66 N3        29.89F
6HR MIN TEMP:  26; 6HR MAX TEMP:  35;

LARAMIE        FAIR      22  16  78 N6        29.83F WCI  14
6HR MIN TEMP:  12; 6HR MAX TEMP:  29;

CHEYENNE       FAIR      42  17  36 W8        29.76F
6HR MIN TEMP:  42; 6HR MAX TEMP:  56;

TORRINGTON     FAIR      45  19  35 W7        29.71F
6HR MIN TEMP:  45; 6HR MAX TEMP:  57;


$$




USA.gov is the U.S. government's official web portal to all federal, state and local government web resources and services.